Airfield :
LOGIN :

Register | Disclaimer

   EN    FR    IT 

 










Legend :    VFR   Marginal VFR   IFR   Intensive IFR   Very Intensive IFR
Visi :
Ceiling :
>= 8 km
>= 3000ft
5 to 8 km
1000 to 3000 ft
1500m to 5 km
500 to 1000 ft
800 to 1500m
200 to 500 ft
< 800m
< 200 ft
Symbols :   Thunderstorms  Fog  Heavy snow  Heavy precipitations  Wind > 20 kt
SIGMETs :     Misc.  Thunderstorms  Icing  Turbulence  Mountain Waves  Volcanic Ashes







- Airport Elevation : 106 ft
- IATA code : XDA
- Download approach charts


LFBY - Dax Seyresse

CURRENT METAR :
  • 251830Z AUTO VRB03KT //// // ////// 15/08 Q1027

EXPIRED METARs :
  • 251800Z AUTO 30003KT 270V350 //// // ////// 16/08 Q1027
  • 251730Z AUTO 29003KT 260V320 //// // ////// 18/08 Q1027
  • 251700Z AUTO 31005KT 280V360 //// // ////// 19/08 Q1026
  • 251630Z AUTO VRB03KT //// // ////// 21/06 Q1026
  • 251600Z AUTO VRB03KT //// // ////// 22/05 Q1026

Expired Forecast.
No reported NOTAMs for that airfield.



MET'MAP, your aeronautical weather chart ! - Copyright ORBIFLY December 2007 - Disclaimer

ORBIFLY MET'MAP TEAM :

Programming & Development : Alexandra Zaïnal
Concept & Development : Baudouin d'Aumeries
Co-Development & Prog : Marc-Olivier Méhu
Technical & hardware support : Manuel Goepfert

Contact : metmap@orbifly.com




SOURCES & CREDITS :

   NOAA